World > North America > United States > Utah

Hourly Castleton, UT Regional Weather

Feedback E-mail the Weather

Quick WX

Castleton, UT Weather Maps

°F °C°F °C
Castleton Weather Map
UTC Time: 6/29/2022, 13:19
Your Time:

Castleton, UT Regional Weather

Expires:202206291400;;384869
ASUS45 KSLC 291310
RWRUT 

UTAH REGIONAL WEATHER ROUNDUP
NATIONAL WEATHER SERVICE SALT LAKE CITY UT
700 AM MDT WED JUN 29 2022


UTZ024>027-106-112>120-291400-

CENTRAL/NORTHEAST UTAH
  
CITY           SKY/WX    TMP DP  RH WIND       PRES   REMARKS
PROVO AIRPORT  CLOUDY    72  52  49 SE10      30.12R                  
MOAB/CANYONLAN PTSUNNY   77  40  26 SE7       30.15R                  
DELTA            N/A     73  41  31 S18       30.13R                  
MANTI          PTSUNNY   67  47  48 E7        30.22R                  
PRICE          MOCLDY    72  41  32 E6        30.24S                  
DUCHESNE       MOSUNNY   64  52  63 W5        30.26S                  
VERNAL         CLOUDY    71  46  40 W8        30.22R                  

$$


SKY/WX - Weather  TMP - Temperature  DP - Dew Point  RH - Humidity
WIND - Wind Direction/Speed PRES - Barometric Pressure VSB - Visibility
WCI - Wind Chill Index E13G22 Wind - East Wind 13 mph/Gusts of 22 mph

Trending Headlines

Castleton Radar Loop



Castleton Quick Facts


National Two Day Weather Forecast


E-mail the Castleton Weather Forecast

Voice your opinion or tell us about page issues...